Willimantic, CT

5:18 AM EST on December 16, 2019 (GMT -0500)
Windham

Weather History for KIJD - August, 2019

Change the Weather History Date:

Monday, August 12, 2019

  Actual Average Record
Temperature  
Mean Temperature 69 °F -  
Max Temperature 84 °F 80 °F 93 °F (2016)
Min Temperature 54 °F 58 °F 42 °F (1968)
Cooling Degree Days 4    
Growing Degree Days 19 (Base 50)    
Moisture  
Dew Point 56 °F    
Average Humidity 72    
Maximum Humidity 100    
Minimum Humidity 38    
Precipitation  
Precipitation 0.00 in - - ()
Sea Level Pressure  
Sea Level Pressure 29.95 in    
Wind  
Wind Speed 2 mph (WSW)    
Max Wind Speed 10 mph    
Max Gust Speed -    
Visibility 9 miles    
Events      
Averages and records for this station are not official NWS values.
T = Trace of Precipitation, MM = Missing Value Source: NWS Daily Summary

Daily Weather History Graph

Daily Weather History Graph

Search for Another Location

Airport or City:

Astronomy

Aug. 12, 2019 Rise Set
Actual Time 5:53 AM EDT 7:53 PM EDT
Civil Twilight 5:23 AM EDT 8:23 PM EDT
Nautical Twilight 4:46 AM EDT 9:00 PM EDT
Astronomical Twilight 4:06 AM EDT 9:40 PM EDT
Moon 6:22 PM EDT (8/12) 2:58 AM EDT (8/12)
Length of Visible Light 14h 59m
Length of Day
13h 59m
Waxing Gibbous, 93% of the Moon is Illuminated
Aug 12
Waxing Gibbous
Aug 15
Full
Aug 23
Last Quarter
Aug 30
New
Sep 5
First Quarter

Hourly Weather History & Observations

Time (EDT) Temp. Heat Index Dew Point Humidity Pressure Visibility Wind Dir Wind Speed Gust Speed Precip Events Conditions
12:52 AM 59.0 °F - 55.9 °F 90% 30.00 in 10.0 mi Calm Calm - N/A   Clear
1:52 AM 57.0 °F - 55.0 °F 93% 30.01 in 10.0 mi Calm Calm - N/A   Clear
3:52 AM 55.0 °F - 52.0 °F 89% 30.01 in 10.0 mi Calm Calm - N/A   Clear
4:23 AM 54.0 °F - 52.0 °F 93% 29.99 in 9.0 mi Calm Calm - N/A   Scattered Clouds
4:31 AM 55.0 °F - 53.1 °F 93% 30.00 in 9.0 mi Calm Calm - N/A   Mostly Cloudy
4:52 AM 54.0 °F - 53.1 °F 97% 29.99 in 10.0 mi Calm Calm - N/A   Overcast
5:22 AM 55.0 °F - 54.0 °F 96% 30.00 in 1.8 mi Calm Calm - N/A   Overcast
5:32 AM 55.0 °F - 54.0 °F 96% 30.00 in 0.8 mi Calm Calm - N/A   Overcast
5:38 AM 54.0 °F - 54.0 °F 100% 30.02 in 2.0 mi Calm Calm - N/A   Overcast
5:45 AM 54.0 °F - 53.1 °F 97% 30.01 in 10.0 mi Calm Calm - N/A   Mostly Cloudy
5:52 AM 54.0 °F - 53.1 °F 97% 30.01 in 10.0 mi Calm Calm - N/A   Scattered Clouds
6:52 AM 55.0 °F - 53.1 °F 93% 30.01 in 9.0 mi Calm Calm - N/A   Clear
7:04 AM 55.0 °F - 54.0 °F 96% 30.01 in 10.0 mi Calm Calm - N/A   Partly Cloudy
7:52 AM 60.1 °F - 57.0 °F 90% 30.00 in 10.0 mi Calm Calm - N/A   Clear
8:52 AM 68.0 °F - 59.0 °F 73% 29.99 in 10.0 mi Calm Calm - N/A   Clear
9:52 AM 75.0 °F - 59.0 °F 57% 29.98 in 10.0 mi Calm Calm - N/A   Clear
10:52 AM 78.1 °F - 57.0 °F 48% 29.98 in 10.0 mi WNW 8.1 mph - N/A   Clear
11:52 AM 81.0 °F 80.7 °F 55.0 °F 41% 29.96 in 10.0 mi NW 8.1 mph - N/A   Clear
12:52 PM 81.0 °F 80.8 °F 55.9 °F 42% 29.94 in 10.0 mi WSW 6.9 mph - N/A   Clear
1:52 PM 82.9 °F 82.0 °F 55.0 °F 38% 29.93 in 10.0 mi WNW 6.9 mph - N/A   Clear
2:52 PM 84.0 °F 83.3 °F 57.0 °F 40% 29.90 in 10.0 mi WNW 9.2 mph - N/A   Partly Cloudy
3:52 PM 82.9 °F 82.6 °F 57.9 °F 42% 29.88 in 10.0 mi West 5.8 mph - N/A   Scattered Clouds
4:52 PM 84.0 °F 83.3 °F 57.0 °F 40% 29.88 in 10.0 mi Variable 4.6 mph - N/A   Mostly Cloudy
5:52 PM 82.0 °F 82.7 °F 61.0 °F 49% 29.87 in 10.0 mi SSW 10.4 mph - N/A   Clear
6:52 PM 80.1 °F 80.9 °F 60.1 °F 50% 29.87 in 10.0 mi SW 6.9 mph - N/A   Clear
7:52 PM 78.1 °F - 61.0 °F 56% 29.87 in 10.0 mi South 4.6 mph - N/A   Clear
8:52 PM 75.9 °F - 60.1 °F 58% 29.88 in 10.0 mi South 6.9 mph - N/A   Clear
9:52 PM 73.9 °F - 61.0 °F 64% 29.88 in 10.0 mi South 4.6 mph - N/A   Clear
10:52 PM 73.0 °F - 62.1 °F 68% 29.88 in 10.0 mi SSW 5.8 mph - N/A   Clear
11:52 PM 72.0 °F - 63.0 °F 73% 29.87 in 10.0 mi Calm Calm - N/A   Clear